Weather History for KIPT - May, 2014

Change the Weather History Date:

Monday, May 26, 2014

  Actual Average Record
Temperature  
Mean Temperature 68 °F 63 °F  
Max Temperature 86 °F 74 °F 93 °F (1914)
Min Temperature 49 °F 51 °F 35 °F (1925)
Degree Days  
Heating Degree Days 0 4  
Month to date heating degree days 135 185  
Since 1 July heating degree days 6450 5940  
Cooling Degree Days 3 2  
Month to date cooling degree days 30 26  
Year to date cooling degree days 39 31  
Growing Degree Days 17 (Base 50)    
Moisture  
Dew Point 50 °F    
Average Humidity 59    
Maximum Humidity 89    
Minimum Humidity 29    
Precipitation  
Precipitation 0.00 in 0.12 in 1.52 in (1943)
Month to date precipitation 4.90 3.06  
Year to date precipitation 14.46 14.31  
Snow  
Snow 0.00 in - - ()
Month to date snowfall 0.0  
Since 1 July snowfall 45.9  
Snow Depth 0.00 in    
Sea Level Pressure  
Sea Level Pressure 30.02 in    
Wind  
Wind Speed 5 mph (West)    
Max Wind Speed 15 mph    
Max Gust Speed 20 mph    
Visibility 10 miles    
Events      
T = Trace of Precipitation, MM = Missing Value Source: NWS Daily Summary

Daily Weather History Graph

Daily Weather History Graph

Search for Another Location

Airport or City:

Trip Planner

Search our weather history database for the weather conditions in past years. The results will help you decide how hot, cold, wet, or windy it might be!

Date:

Astronomy

May. 26, 2014 Rise Set
Actual Time 5:40 AM EDT 8:29 PM EDT
Civil Twilight 5:07 AM EDT 9:02 PM EDT
Nautical Twilight 4:26 AM EDT 9:43 PM EDT
Astronomical Twilight 3:39 AM EDT 10:30 PM EDT
Moon 4:22 AM EDT 6:28 PM EDT
Length of Visible Light 15h 54m
Length of Day
14h 49m
Waning Crescent, 5% of the Moon is Illuminated
May 26
Waning Crescent
May 28
New
Jun 5
First Quarter
Jun 13
Full
Jun 19
Last Quarter

Hourly Weather History & Observations

Time (EDT) Temp. Dew Point Humidity Pressure Visibility Wind Dir Wind Speed Gust Speed Precip Events Conditions
12:54 AM 57.0 °F 48.0 °F 72% 30.07 in 10.0 mi Calm Calm - N/A   Clear
1:54 AM 54.0 °F 48.9 °F 83% 30.08 in 10.0 mi Calm Calm - N/A   Clear
2:54 AM 53.1 °F 48.0 °F 83% 30.09 in 10.0 mi Calm Calm - N/A   Clear
3:54 AM 51.1 °F 48.0 °F 89% 30.09 in 10.0 mi Calm Calm - N/A   Clear
4:54 AM 51.1 °F 46.9 °F 86% 30.09 in 10.0 mi NNW 3.5 mph - N/A   Clear
5:54 AM 50.0 °F 46.0 °F 86% 30.09 in 10.0 mi Calm Calm - N/A   Clear
6:54 AM 52.0 °F 46.9 °F 83% 30.11 in 10.0 mi Calm Calm - N/A   Clear
7:54 AM 55.9 °F 48.9 °F 77% 30.12 in 10.0 mi Calm Calm - N/A   Clear
8:54 AM 63.0 °F 50.0 °F 63% 30.11 in 10.0 mi West 5.8 mph - N/A   Clear
9:54 AM 69.1 °F 51.1 °F 53% 30.09 in 10.0 mi West 9.2 mph - N/A   Clear
10:54 AM 75.0 °F 51.1 °F 43% 30.07 in 10.0 mi WNW 6.9 mph - N/A   Clear
11:54 AM 79.0 °F 51.1 °F 38% 30.05 in 10.0 mi West 5.8 mph - N/A   Clear
12:54 PM 82.0 °F 51.1 °F 34% 30.01 in 10.0 mi West 8.1 mph - N/A   Clear
1:54 PM 82.9 °F 50.0 °F 32% 29.99 in 10.0 mi SW 8.1 mph - N/A   Clear
2:54 PM 86.0 °F 50.0 °F 29% 29.96 in 10.0 mi WSW 9.2 mph - N/A   Clear
3:54 PM 86.0 °F 51.1 °F 30% 29.94 in 10.0 mi WSW 10.4 mph - N/A   Clear
4:54 PM 86.0 °F 50.0 °F 29% 29.93 in 10.0 mi WSW 12.7 mph - N/A   Partly Cloudy
5:54 PM 84.9 °F 51.1 °F 31% 29.91 in 10.0 mi West 11.5 mph - N/A   Clear
6:54 PM 82.0 °F 50.0 °F 33% 29.90 in 10.0 mi West 10.4 mph - N/A   Clear
7:54 PM 78.1 °F 53.1 °F 42% 29.91 in 10.0 mi WSW 4.6 mph - N/A   Clear
8:54 PM 73.0 °F 53.1 °F 49% 29.92 in 10.0 mi West 5.8 mph - N/A   Clear
9:54 PM 69.1 °F 55.0 °F 61% 29.93 in 10.0 mi Calm Calm - N/A   Clear
10:54 PM 66.9 °F 55.0 °F 66% 29.94 in 10.0 mi Calm Calm - N/A   Clear
11:54 PM 64.0 °F 54.0 °F 70% 29.94 in 10.0 mi NNW 3.5 mph - N/A   Clear